SCP
0 0 0 0 0 0 0 0 0 0 0 0 0 0 0 0 0 0 0 0 0 0 0 0 0 0 0 0 0 0 0 1 1 1 1 1 1 1
0 0 0 0 0 0 0 0 0 0 0 0 0 0 0 0 0 0 0 0 0 0 0 0 0 0 0 0 0 0 0 0 1 1 1 1 1 1
0 0 0 0 0 0 0 0 0 0 0 0 0 0 0 0 0 0 0 0 0 0 0 0 0 0 0 0 0 0 0 0 0 1 1 1 1 0
0 0 0 0 0 0 0 0 0 0 0 0 0 0 0 0 0 0 0 0 0 0 0 0 0 0 0 0 0 0 0 0 0 0 0 0 0 0
0 0 0 0 0 0 0 0 0 0 0 0 0 0 0 0 0 0 0 0 0 0 0 0 0 0 0 0 0 0 0 0 0 0 0 0 0 0
0 0 0 0 0 0 0 0 0 0 0 0 0 0 0 0 0 0 0 0 0 0 0 0 0 0 0 0 0 0 0 0 0 0 0 0 0 0
0 0 0 0 0 0 0 0 0 0 0 0 0 0 0 0 0 0 0 0 0 0 0 0 0 0 0 0 0 0 0 0 0 0 0 0 0 0
0 0 0 0 0 0 0 0 0 0 0 0 0 0 0 0 0 0 0 0 0 0 0 0 0 0 0 0 0 0 0 0 0 0 0 0 0 0
0 0 0 0 0 0 0 0 0 0 0 0 0 0 0 0 0 0 0 0 0 0 0 0 0 0 0 0 0 0 0 0 0 0 0 0 0 0
0 0 0 0 0 0 0 0 0 0 0 0 0 0 0 0 0 0 0 0 0 0 0 0 0 0 0 0 0 0 0 0 0 0 0 0 0 0
0 0 0 0 0 0 0 0 0 0 0 0 0 0 0 0 0 0 0 0 0 0 0 0 0 0 0 0 0 0 0 0 0 0 0 0 0 0
0 0 0 0 0 0 0 0 0 0 0 0 0 0 0 0 0 0 0 0 0 0 0 0 0 0 0 0 0 0 0 0 0 0 0 0 0 0
0 0 0 0 0 0 0 0 0 0 0 0 0 0 0 0 0 0 0 0 0 0 0 0 0 0 0 0 0 0 0 0 0 0 0 0 0 0
0 0 0 0 0 0 0 0 0 0 0 0 0 0 0 0 0 0 0 0 0 0 0 0 0 0 0 0 0 0 0 0 0 0 0 0 0 0
0 0 0 0 0 0 0 0 0 0 0 0 0 0 0 0 0 0 0 0 0 0 0 0 0 0 0 0 0 0 0 0 0 0 0 0 0 0
0 0 0 0 0 0 0 0 0 0 0 0 0 0 0 0 0 0 0 0 0 0 0 0 0 0 0 0 0 0 0 0 0 0 0 0 0 0
0 0 0 0 0 0 0 0 0 0 0 0 0 0 0 0 0 0 0 0 0 0 0 0 0 0 0 0 0 0 0 0 0 0 0 0 0 0
0 0 0 0 0 0 0 0 0 0 0 0 0 0 0 0 0 0 0 0 0 0 0 0 0 0 0 0 0 0 0 0 0 0 0 0 0 0
0 0 0 0 0 0 0 0 0 0 0 0 0 0 0 0 0 0 0 0 0 0 0 0 0 0 0 0 0 0 0 0 0 0 0 0 0 0
0 0 0 0 0 0 0 0 0 0 0 0 0 0 0 0 0 0 0 0 0 0 0 0 0 0 0 0 0 0 0 0 0 0 0 0 0 0
0 0 0 0 0 0 0 0 0 0 0 0 0 0 0 0 0 0 0 0 0 0 0 0 0 0 0 0 0 0 0 0 0 0 0 0 0 0
0 0 0 0 0 0 0 0 0 0 0 0 0 0 0 0 0 0 0 0 0 0 0 0 0 0 0 0 0 0 0 0 0 0 0 0 0 0
0 0 0 0 0 0 0 0 0 0 0 0 0 0 0 0 0 0 0 0 0 0 0 0 0 0 0 0 0 0 0 0 0 0 0 0 0 0
Wind_Speed
3 3 2 2 3 3 2 2 2 2 1 1 1 2 2 2 3 3 3 6 7 8 10 11 11 10 10 10 11 11 11 10 9 9 9 9 9 9
2 3 3 2 3 2 2 3 2 2 1 1 1 1 2 3 4 3 3 6 7 7 8 9 10 10 10 10 10 10 10 10 10 10 10 9 9 9
2 3 3 3 2 2 3 3 3 2 2 1 2 2 3 3 2 2 1 2 3 5 6 7 8 9 9 9 10 10 10 10 10 10 10 10 10 10
2 2 2 2 2 2 2 3 2 2 2 2 1 2 2 2 2 2 2 2 2 3 4 5 6 7 8 8 9 9 9 9 9 9 10 10 9 9
3 3 3 2 2 2 2 2 2 2 2 2 1 1 2 2 2 3 3 2 1 2 2 3 4 6 7 7 7 8 7 7 8 8 8 9 9 9
3 3 4 4 3 3 3 3 3 2 2 2 1 1 1 2 2 2 2 2 2 3 3 2 2 3 4 5 6 6 6 6 7 7 7 8 8 9
2 3 4 5 7 5 4 3 3 2 2 1 1 1 1 2 2 1 2 2 2 2 2 2 1 1 1 2 4 4 5 6 6 7 7 7 7 8
2 3 3 4 6 6 6 5 4 2 1 1 1 1 1 1 1 1 1 2 2 2 2 3 2 2 1 0 1 2 3 4 5 6 7 7 8 8
1 2 2 3 4 2 3 4 4 4 2 1 1 1 1 1 1 2 2 1 2 3 1 3 2 2 2 1 1 2 2 3 5 6 7 7 8 8
2 2 2 3 3 3 1 2 2 3 2 1 1 0 1 1 1 1 2 2 2 2 1 2 3 3 3 2 3 3 3 3 4 6 7 7 7 8
2 3 3 3 4 5 3 2 2 2 3 4 2 1 2 3 3 2 2 2 3 3 2 1 3 3 3 2 3 4 4 5 6 6 7 7 7 7
1 3 5 4 4 5 2 2 2 2 2 1 2 2 2 2 3 1 0 1 2 3 2 1 2 3 4 3 2 2 3 5 6 6 7 8 7 4
1 1 2 4 4 4 3 1 1 2 1 1 1 1 1 1 2 2 1 0 1 2 3 2 2 2 2 4 3 3 2 2 3 4 6 7 7 5
1 1 2 2 2 2 2 2 3 3 1 1 1 1 1 2 2 2 2 2 1 2 3 2 2 2 3 4 4 4 3 2 2 3 3 5 6 6
1 2 1 0 0 1 1 2 2 1 1 1 1 1 1 1 2 2 3 2 3 4 3 3 2 2 2 3 4 4 4 4 3 3 3 3 3 3
1 1 1 1 0 1 1 1 1 1 0 0 1 1 1 1 2 2 2 2 3 4 4 3 3 3 3 4 4 5 4 4 4 3 4 4 3 3
1 1 0 0 0 1 1 1 0 1 1 1 1 2 2 2 2 2 2 2 3 4 4 4 4 3 4 4 4 5 4 4 4 4 4 4 4 3
2 1 0 0 0 0 0 1 1 1 1 1 1 2 2 2 3 3 2 2 3 4 4 4 4 4 4 4 4 4 4 4 4 4 3 4 5 4
2 1 0 0 0 0 0 0 1 1 1 1 1 2 2 2 2 3 3 3 3 4 4 3 3 3 5 6 6 4 4 5 4 4 4 4 6 5
1 1 1 1 0 0 0 1 1 1 1 1 1 2 2 2 3 3 3 4 4 4 4 3 3 3 4 6 6 6 7 5 4 5 5 4 5 7
1 1 1 1 1 1 1 1 1 1 1 1 1 2 2 2 3 3 4 5 5 4 5 5 5 6 4 3 5 5 5 6 7 5 5 5 6 5
2 2 2 1 1 1 1 1 1 1 1 1 1 2 2 2 3 4 4 4 4 5 5 5 5 4 4 5 6 7 7 6 7 9 9 8 5 6
2 2 2 2 1 1 1 1 1 1 1 1 2 2 2 3 3 3 4 4 4 5 5 5 4 4 4 5 6 6 8 8 5 5 6 9 12 14
Wind_Direction
38 47 53 45 33 24 26 52 100 81 41 47 37 34 45 65 41 66 73 63 58 47 39 38 40 40 39 36 32 28 29 32 33 30 29 28 26 21
47 43 42 37 32 25 22 23 47 94 90 28 47 77 45 58 57 69 90 83 71 57 47 43 43 43 41 36 33 30 29 30 31 32 31 28 24 20
67 76 62 48 35 17 27 32 31 61 93 30 36 42 48 43 27 46 97 91 77 71 58 50 47 45 42 38 36 34 31 29 27 28 26 24 23 20
60 77 83 74 51 27 31 32 32 39 87 83 24 21 29 33 29 23 31 67 89 90 76 56 48 46 42 38 36 32 31 29 25 24 22 19 17 17
53 55 50 61 47 35 42 34 29 37 64 93 51 20 14 13 28 16 19 12 24 85 79 51 41 42 37 32 29 26 29 25 23 22 19 14 11 9
63 57 50 55 45 36 39 28 35 37 42 67 69 26 13 357 30 11 359 353 357 9 18 25 32 33 25 21 21 23 27 23 21 16 11 7 4 2
89 85 81 81 69 62 55 34 33 32 32 56 45 33 9 6 356 347 356 331 341 360 356 344 351 358 348 1 10 19 21 16 11 6 3 0 356 356
102 109 114 102 86 77 68 58 54 54 35 48 35 33 334 339 344 357 358 359 330 325 352 322 344 331 300 307 11 20 9 2 358 356 356 355 350 347
68 102 94 88 89 87 70 53 36 31 43 100 67 337 328 328 353 343 329 310 275 281 343 312 324 316 300 318 322 338 335 338 345 346 346 342 336 334
37 69 96 89 61 53 72 62 44 21 14 65 91 49 24 340 329 292 282 308 308 319 20 309 305 301 307 293 282 285 293 304 317 325 327 326 322 319
48 49 70 82 51 40 58 58 51 4 32 59 46 19 347 340 351 17 359 357 326 314 331 328 304 307 301 290 287 272 283 287 291 301 310 313 314 317
68 72 73 79 59 47 56 57 28 336 6 9 345 316 315 330 345 35 51 335 312 306 311 335 313 331 320 302 304 297 288 287 283 289 296 299 301 305
86 74 65 76 64 43 40 50 338 333 338 329 320 330 356 1 355 358 357 306 292 288 303 338 314 317 299 302 306 293 279 289 296 294 287 291 291 281
84 101 105 98 55 20 16 347 346 353 343 343 356 351 349 339 333 329 318 312 282 269 290 310 292 296 303 304 302 306 305 293 293 295 291 294 287 282
51 105 128 150 83 331 315 324 341 349 346 354 334 312 303 302 318 322 317 313 311 302 302 294 283 289 283 282 290 297 308 304 297 298 300 292 284 286
72 101 148 236 271 277 302 293 260 260 288 282 294 301 320 330 321 319 320 323 321 309 305 307 300 283 282 282 280 288 290 290 304 303 300 296 294 293
126 122 68 317 303 297 298 316 336 356 345 331 319 316 318 316 306 305 304 313 307 303 309 315 306 286 264 270 283 285 288 289 287 295 302 299 292 294
117 138 208 210 221 244 337 321 327 336 322 319 314 309 309 306 305 311 312 305 299 298 299 303 313 321 320 300 267 279 291 289 290 291 292 296 294 289
124 174 200 203 252 5 348 326 306 305 312 308 302 303 304 307 309 310 309 309 306 302 298 301 312 316 312 305 298 288 290 293 294 293 287 283 285 286
171 191 204 216 220 245 271 279 293 311 321 317 314 314 315 315 314 309 305 304 303 303 303 304 303 297 286 285 288 292 284 283 289 289 290 290 283 287
200 223 231 223 220 224 248 262 266 273 291 305 307 309 315 317 311 309 309 310 309 303 299 294 285 288 284 294 295 292 289 279 280 285 294 301 301 302
197 208 222 225 218 218 231 247 260 265 272 283 303 307 306 307 303 301 302 304 302 300 301 300 305 312 310 299 294 294 296 298 293 289 283 277 281 287
206 207 207 210 218 228 230 250 261 272 280 297 304 300 298 300 298 296 296 296 297 300 304 304 305 304 298 294 294 294 296 299 300 303 293 285 278 275